Home   Weather   Fairfield   Past weeks
Flag for United Kingdom

Past Weather in Fairfield, England, United Kingdom — Yesterday and Last 2 Weeks

Now
39 °F

Chilly.


Feels Like: 34 °F
Forecast: 43 / 38 °F
Wind: 7 mph from South

Location: Manchester Airport

Current Time: Dec 11, 2019 at 5:36:10 am

Latest Report: Dec 11, 2019 at 4:20 am


Visibility: N/A

Pressure: 29.65 "Hg

Humidity: 81%

Dew Point: 34 °F

Location of FairfieldLocation

Past Weather in Fairfield — Graph

°F

Fairfield Temperature Yesterday

Maximum temperature yesterday: 54 °F (at 2:50 pm)
Minimum temperature yesterday: 36 °F (at 12:20 am)
Average temperature yesterday: 45 °F

High & Low Weather Summary for the Past Weeks

 TemperatureHumidityPressure
High55 °F (Nov 26, 2:50 pm)100% (Nov 27, 11:20 pm)30.48 "Hg (Nov 27, 11:20 pm)
Low23 °F (Dec 2, 3:20 am)62% (Dec 8, 1:20 pm)29.03 "Hg (Nov 27, 5:20 am)
Average42 °F87%29.81 "Hg
* Reported Nov 26 3:20 am — Dec 11 3:50 am, Fairfield. Weather by CustomWeather, © 2019

Note: Actual official high and low records may vary slightly from our data, if they occured in-between our weather recording intervals... More about our weather records

Fairfield Weather History for the Previous 24 Hours

Scroll right to see more
 ConditionsComfort  
Time TempWeatherWind HumidityBarometerVisibility
3:50 am
Wed, Dec 11
39 °FChilly.7 mph81%29.65 "HgN/A
3:20 am39 °FChilly.8 mph81%29.65 "HgN/A
2:50 am39 °FChilly.7 mph81%29.65 "HgN/A
2:20 am39 °FChilly.9 mph87%29.65 "HgN/A
1:50 am39 °FChilly.9 mph87%29.65 "HgN/A
1:20 am41 °FPassing clouds.8 mph81%29.65 "HgN/A
12:50 am41 °FPassing clouds.10 mph81%29.65 "HgN/A
12:20 am41 °FPassing clouds.8 mph81%29.65 "HgN/A
11:50 pm
Tue, Dec 10
39 °FPassing clouds.6 mph87%29.65 "HgN/A
11:20 pm39 °FChilly.7 mph87%29.62 "HgN/A
10:50 pm39 °FPassing clouds.7 mph87%29.62 "HgN/A
10:20 pm41 °FPassing clouds.6 mph87%29.59 "HgN/A
9:50 pm41 °FPassing clouds.8 mph87%29.59 "HgN/A
9:20 pm41 °FPassing clouds.10 mph87%29.56 "HgN/A
8:50 pm43 °FQuite cool.13 mph81%29.56 "HgN/A
8:20 pm43 °FQuite cool.13 mph87%29.53 "HgN/A
7:50 pm43 °FPassing clouds.14 mph87%29.53 "HgN/A
7:20 pm45 °FLight rain. Passing clouds.22 mph87%29.50 "HgN/A
6:50 pm46 °FLight rain. Mostly cloudy.25 mph87%29.47 "Hg4 mi
6:20 pm46 °FLight rain. Partly cloudy.15 mph87%29.47 "HgN/A
5:50 pm46 °FLight rain. Passing clouds.20 mph93%29.45 "HgN/A
5:20 pm46 °FRain. Passing clouds.21 mph93%29.42 "Hg5 mi
4:50 pm54 °FHeavy rain. Passing clouds.16 mph94%29.33 "Hg2 mi
4:20 pm54 °FRain. Mostly cloudy.15 mph94%29.33 "Hg3 mi
3:50 pm54 °FRain. Passing clouds.16 mph94%29.36 "Hg4 mi
3:20 pm54 °FLight rain. Partly sunny.17 mph88%29.36 "Hg4 mi
2:50 pm54 °FDrizzle. Mostly cloudy.16 mph88%29.39 "Hg3 mi
2:20 pm52 °FSprinkles. Partly sunny.15 mph94%29.42 "Hg4 mi
1:50 pm52 °FSprinkles. Mostly cloudy.16 mph88%29.45 "HgN/A
1:20 pm52 °FSprinkles. Partly sunny.14 mph88%29.47 "HgN/A
12:50 pm52 °FPartly sunny.15 mph82%29.50 "HgN/A
12:20 pm52 °FPartly sunny.13 mph82%29.53 "HgN/A
11:50 am50 °FMostly cloudy.16 mph88%29.59 "HgN/A
11:20 am50 °FMostly cloudy.15 mph82%29.59 "HgN/A
10:50 am48 °FPartly sunny.14 mph87%29.65 "HgN/A
10:20 am46 °FPartly sunny.14 mph87%29.68 "HgN/A
9:50 am46 °FScattered clouds.14 mph87%29.68 "HgN/A
9:20 am46 °FLight rain. Partly sunny.12 mph82%29.74 "HgN/A
8:50 am45 °FLight rain. Partly sunny.14 mph87%29.77 "HgN/A
8:20 am45 °FLight rain. Partly sunny.12 mph81%29.77 "HgN/A
7:50 am45 °FLight rain. Passing clouds.12 mph81%29.80 "HgN/A
7:20 am43 °FLight rain. Overcast.8 mph87%29.83 "HgN/A
6:50 am43 °FOvercast.9 mph81%29.86 "HgN/A
6:20 am43 °FPassing clouds.10 mph81%29.89 "HgN/A
5:50 am41 °FQuite cool.10 mph87%29.92 "HgN/A
5:20 am41 °FQuite cool.9 mph81%29.95 "HgN/A
Weather by CustomWeather, © 2019

See weather overview

Advertising